Location: NJAA Observatory
(40.6819°N, 74.8979°W)
Time: 01:25:46
(UTC-04:00)

Cosmos 2263 Rocket - Visible Passes

Search period start: 31 March 2015 00:00
Search period end: 10 April 2015 00:00
Orbit: 824 x 849 km, 71.0° (Epoch: 30 March)

Date Brightness Start Highest point End Pass type
(mag) Time Alt. Az. Time Alt. Az. Time Alt. Az.
31 Mar 5.0 01:44:28 11° NNW 01:44:28 11° NNW 01:44:50 10° NNW visible
31 Mar 4.9 23:46:04 11° NNE 23:46:04 11° NNE 23:46:11 10° NNE visible
01 Apr 5.0 01:27:43 12° NNW 01:27:43 12° NNW 01:28:24 10° NNW visible
01 Apr 4.8 23:29:16 11° NNE 23:29:16 11° NNE 23:29:31 10° NNE visible
02 Apr 4.9 01:10:55 13° NNW 01:10:55 13° NNW 01:11:56 10° N visible
02 Apr 4.7 23:12:24 12° NNE 23:12:24 12° NNE 23:12:52 10° NNE visible
03 Apr 4.8 00:54:02 14° NNW 00:54:02 14° NNW 00:55:27 10° N visible
03 Apr 4.5 22:55:25 14° NNE 22:55:25 14° NNE 22:56:12 10° NNE visible
04 Apr 4.7 00:37:04 16° NNW 00:37:04 16° NNW 00:38:57 10° N visible
04 Apr 4.3 22:38:20 17° NNE 22:38:20 17° NNE 22:39:32 10° NNE visible
05 Apr 4.6 00:19:58 18° NNW 00:19:58 18° NNW 00:22:26 10° N visible
05 Apr 3.9 22:21:04 21° NE 22:21:04 21° NE 22:22:52 10° NNE visible
06 Apr 4.4 00:02:40 20° NW 00:02:40 20° NW 00:05:54 10° N visible
06 Apr 3.5 22:03:30 28° NE 22:03:30 28° NE 22:06:11 10° NNE visible
06 Apr 4.2 23:45:06 23° NW 23:45:06 23° NW 23:49:22 10° N visible
07 Apr 2.7 21:45:30 41° ENE 21:45:30 41° ENE 21:49:30 10° NNE visible
07 Apr 4.1 23:27:02 23° WNW 23:28:18 24° NW 23:32:49 10° N visible
08 Apr 2.4 21:26:22 42° SE 21:27:23 47° ESE 21:32:48 10° NE visible
08 Apr 4.1 23:07:46 14° WSW 23:11:35 26° NW 23:16:15 10° N visible
09 Apr 2.5 21:05:28 10° S 21:10:45 43° ESE 21:16:06 10° NE visible
09 Apr 4.0 22:50:01 10° WSW 22:54:53 28° NW 22:59:41 10° N visible
